TimeCST,TemperatureF,Dew PointF,Humidity,Sea Level PressureIn,VisibilityMPH,Wind Direction,Wind SpeedMPH,Gust SpeedMPH,PrecipitationIn,Events,Conditions,WindDirDegrees,DateUTC
12:15 AM,35.6,23.0,60,30.13,10.0,South,5.8,-,N/A,,Clear,170,2013-01-08 06:15:00
12:35 AM,35.6,23.0,60,30.13,10.0,South,4.6,-,N/A,,Clear,180,2013-01-08 06:35:00
12:55 AM,35.6,23.0,60,30.13,10.0,SSE,5.8,-,N/A,,Clear,160,2013-01-08 06:55:00
1:15 AM,35.6,23.0,60,30.13,10.0,South,5.8,-,N/A,,Clear,170,2013-01-08 07:15:00
1:35 AM,35.6,23.0,60,30.13,10.0,SSE,6.9,-,N/A,,Clear,150,2013-01-08 07:35:00
1:55 AM,33.8,23.0,65,30.13,10.0,SSE,4.6,-,N/A,,Clear,160,2013-01-08 07:55:00
2:15 AM,33.8,23.0,65,30.14,10.0,SSE,4.6,-,N/A,,Clear,160,2013-01-08 08:15:00
2:35 AM,35.6,23.0,60,30.15,10.0,SSE,6.9,-,N/A,,Clear,160,2013-01-08 08:35:00
2:55 AM,35.6,23.0,60,30.14,10.0,SSE,6.9,-,N/A,,Clear,150,2013-01-08 08:55:00
3:15 AM,35.6,23.0,60,30.14,10.0,SSE,6.9,-,N/A,,Clear,150,2013-01-08 09:15:00
3:35 AM,33.8,23.0,65,30.13,10.0,SSE,5.8,-,N/A,,Clear,160,2013-01-08 09:35:00
3:55 AM,33.8,23.0,65,30.13,10.0,SSE,5.8,-,N/A,,Clear,160,2013-01-08 09:55:00
4:15 AM,33.8,23.0,65,30.13,10.0,SSE,5.8,-,N/A,,Clear,150,2013-01-08 10:15:00
4:35 AM,32.0,23.0,69,30.13,10.0,SSE,5.8,-,N/A,,Clear,150,2013-01-08 10:35:00
4:55 AM,32.0,23.0,69,30.13,10.0,SSE,6.9,-,N/A,,Clear,150,2013-01-08 10:55:00
5:35 AM,32.0,23.0,69,30.13,10.0,SSE,4.6,-,N/A,,Clear,150,2013-01-08 11:35:00
6:48 AM,30.2,23.0,75,30.14,10.0,ESE,5.8,-,N/A,,Scattered Clouds,120,2013-01-08 12:48:00
7:47 AM,32.0,23.0,69,30.16,10.0,SE,5.8,-,N/A,,Scattered Clouds,140,2013-01-08 13:47:00
8:46 AM,35.6,24.8,65,30.16,10.0,SSE,9.2,-,N/A,,Mostly Cloudy,150,2013-01-08 14:46:00
9:51 AM,39.2,26.6,61,30.17,10.0,SE,9.2,-,N/A,,Scattered Clouds,140,2013-01-08 15:51:00
10:52 AM,44.6,26.6,49,30.16,10.0,SSE,12.7,-,N/A,,Mostly Cloudy,150,2013-01-08 16:52:00
11:49 AM,50.0,28.4,43,30.13,10.0,SSE,6.9,-,N/A,,Mostly Cloudy,150,2013-01-08 17:49:00
12:45 PM,53.6,32.0,44,30.09,10.0,ESE,9.2,-,N/A,,Mostly Cloudy,120,2013-01-08 18:45:00
1:55 PM,55.4,33.8,44,30.07,10.0,SSE,9.2,-,N/A,,Mostly Cloudy,150,2013-01-08 19:55:00
2:55 PM,55.4,37.4,51,30.08,10.0,SSE,8.1,-,N/A,,Overcast,150,2013-01-08 20:55:00
3:45 PM,55.4,39.2,54,30.08,10.0,SE,11.5,-,N/A,,Overcast,140,2013-01-08 21:45:00
4:52 PM,53.6,39.2,58,30.10,10.0,SSE,8.1,-,N/A,,Overcast,160,2013-01-08 22:52:00
5:58 PM,51.8,39.2,62,30.11,10.0,SSE,9.2,-,N/A,,Overcast,150,2013-01-08 23:58:00
6:56 PM,48.2,42.8,82,30.13,10.0,South,4.6,-,N/A,,Overcast,180,2013-01-09 00:56:00
7:56 PM,46.4,44.6,93,30.15,8.0,Calm,Calm,-,N/A,Rain,Light Rain,0,2013-01-09 01:56:00
8:15 PM,46.4,44.6,93,30.15,10.0,ESE,4.6,-,N/A,,Scattered Clouds,120,2013-01-09 02:15:00
8:35 PM,46.4,42.8,87,30.15,10.0,ESE,5.8,-,N/A,,Scattered Clouds,110,2013-01-09 02:35:00
8:50 PM,46.4,42.8,87,30.15,10.0,Calm,Calm,-,N/A,,Overcast,0,2013-01-09 02:50:00
8:55 PM,46.4,42.8,87,30.16,10.0,Calm,Calm,-,N/A,,Mostly Cloudy,0,2013-01-09 02:55:00
9:15 PM,46.4,44.6,93,30.16,10.0,Calm,Calm,-,N/A,,Overcast,0,2013-01-09 03:15:00
9:35 PM,46.4,44.6,93,30.16,10.0,Calm,Calm,-,N/A,,Overcast,0,2013-01-09 03:35:00
9:55 PM,46.4,42.8,87,30.16,10.0,Calm,Calm,-,N/A,,Overcast,0,2013-01-09 03:55:00
10:15 PM,46.4,41.0,81,30.16,10.0,Calm,Calm,-,N/A,,Overcast,0,2013-01-09 04:15:00
10:35 PM,46.4,44.6,93,30.17,10.0,North,3.5,-,N/A,,Overcast,360,2013-01-09 04:35:00
10:55 PM,46.4,42.8,87,30.19,10.0,Calm,Calm,-,N/A,,Overcast,0,2013-01-09 04:55:00
11:15 PM,44.6,44.6,100,30.20,10.0,Calm,Calm,-,N/A,,Overcast,0,2013-01-09 05:15:00
11:35 PM,44.6,44.6,100,30.21,10.0,NW,3.5,-,N/A,,Overcast,310,2013-01-09 05:35:00
11:55 PM,44.6,44.6,100,30.22,7.0,NNW,5.8,-,N/A,,Overcast,340,2013-01-09 05:55:00